Location: Jackson Park
(37.2862°N, 79.9123°W)
Time: 02:17:10
(UTC+00:00)

Tiros 1 despin weight - Pass Details

Date: 15 May 2026
Orbit: 554 x 591 km, 48.2° (Epoch: 6 June)

Event Time Altitude Azimuth Distance (km) Brightness Sun altitude
Rises 10:23:00 0° 244° (WSW) 2,755 ? 1.4°
Reaches altitude 10° 10:25:18 10° 247° (WSW) 1,854 ? 1.8°
Maximum altitude 10:29:29 62° 329° (NNW) 633 ? 2.6°
Drops below altitude 10° 10:33:40 10° 50° (NE) 1,842 ? 3.3°
Sets 10:35:56 0° 54° (NE) 2,736 ? 3.8°
